I1SXT-5 Weather Reports


time (UTC)temp
F
wind
direction
speed
knots
gust
knots
rain 1hr
in
rain 24hr
in
rain mn
in
humidity
%
barometer
mb
20260506070603 0 0.0 0.0 0.00 0.00 0.00 67 1008.2
20260506062052 0 0.0 0.0 0.00 0.00 0.00 74 1008.0
20260506061550 0 0.0 0.0 0.00 0.00 0.00 73 1008.1
20260506061049 0 0.0 0.0 0.00 0.00 0.00 73 1008.2
20260506060548 0 0.0 0.0 0.00 0.00 0.00 73 1008.2
20260506050533 0 0.0 0.0 0.00 0.00 0.00 76 1008.3
20260506045030 0 0.0 0.0 0.00 0.00 0.00 75 1008.4
20260506044528 0 0.0 0.0 0.00 0.00 0.00 75 1008.4
20260506044027 0 0.0 0.0 0.00 0.00 0.00 75 1008.5
20260506043526 0 0.0 0.0 0.00 0.00 0.00 76 1008.4
20260506043025 0 0.0 0.0 0.00 0.00 0.00 77 1008.2
20260506042524 0 0.0 0.0 0.00 0.00 0.00 74 1009.0
20260506042022 0 0.0 0.0 0.00 0.00 0.00 74 1008.7
20260506041521 0 0.0 0.0 0.00 0.00 0.00 74 1008.4
20260506041020 0 0.0 0.0 0.00 0.00 0.00 75 1008.5
20260506040519 0 0.0 0.0 0.00 0.00 0.00 75 1008.7
20260506040017 0 0.0 0.0 0.00 0.00 0.00 75 1008.7
20260506035516 0 0.0 0.0 0.00 0.00 0.00 75 1008.7
20260506035015 0 0.0 0.0 0.00 0.00 0.00 75 1009.0
20260506034514 0 0.0 0.0 0.00 0.00 0.00 76 1009.1
20260506033511 0 0.0 0.0 0.00 0.00 0.00 75 1009.0
20260506033010 0 0.0 0.0 0.00 0.00 0.00 75 1008.9
20260506032509 0 0.0 0.0 0.00 0.00 0.00 75 1009.1
20260506032007 0 0.0 0.0 0.00 0.00 0.00 76 1009.1
20260506031506 0 0.0 0.0 0.00 0.00 0.00 76 1009.1
20260506030504 0 0.0 0.0 0.00 0.00 0.00 80 1009.0
20260506025502 0 0.0 0.0 0.00 0.00 0.00 78 1008.8
20260506025000 0 0.0 0.0 0.00 0.00 0.00 76 1009.3
20260506024459 0 0.0 0.0 0.00 0.00 0.00 77 1009.0
20260506023958 0 0.0 0.0 0.00 0.00 0.00 75 1008.4
20260506022955 0 0.0 0.0 0.00 0.00 0.00 74 1008.2
20260506022454 0 0.0 0.0 0.00 0.00 0.00 75 1008.2
20260506021953 0 0.0 0.0 0.00 0.00 0.00 75 1008.5
20260506021452 0 0.0 0.0 0.00 0.00 0.00 76 1008.7
20260506020950 0 0.0 0.0 0.00 0.00 0.00 75 1008.8
20260506020449 0 0.0 0.0 0.00 0.00 0.00 74 1009.1
20260506015948 0 0.0 0.0 0.00 0.00 0.00 72 1009.1
20260506015446 0 0.0 0.0 0.00 0.00 0.00 70 1009.1
20260506014945 0 0.0 0.0 0.00 0.00 0.00 69 1009.3
20260506014444 0 0.0 0.0 0.00 0.00 0.00 68 1009.5
20260506013943 0 0.0 0.0 0.00 0.00 0.00 68 1009.2
20260506013442 0 0.0 0.0 0.00 0.00 0.00 68 1009.3
20260506012940 0 0.0 0.0 0.00 0.00 0.00 68 1009.5
20260506012439 0 0.0 0.0 0.00 0.00 0.00 69 1009.8
20260506011938 0 0.0 0.0 0.00 0.00 0.00 70 1009.6
20260506011437 0 0.0 0.0 0.00 0.00 0.00 69 1009.6
20260506010935 0 0.0 0.0 0.00 0.00 0.00 68 1009.8
20260506010434 0 0.0 0.0 0.00 0.00 0.00 68 1009.9
20260506005432 0 0.0 0.0 0.00 0.00 0.00 69 1009.9
20260506004931 0 0.0 0.0 0.00 0.00 0.00 69 1009.9
20260506004429 0 0.0 0.0 0.00 0.00 0.00 69 1010.0
20260506003928 0 0.0 0.0 0.00 0.00 0.00 69 1010.2
20260506003427 0 0.0 0.0 0.00 0.00 0.00 70 1010.3
20260506002926 0 0.0 0.0 0.00 0.00 0.00 71 1010.3
20260506002425 0 0.0 0.0 0.00 0.00 0.00 71 1010.2
20260506001923 0 0.0 0.0 0.00 0.00 0.00 71 1010.2
20260506001422 0 0.0 0.0 0.00 0.00 0.00 69 1010.5
20260506000921 0 0.0 0.0 0.00 0.00 0.00 67 1010.4
20260506000419 0 0.0 0.0 0.00 0.00 0.00 68 1010.4
20260505235918 0 0.0 0.0 0.00 0.00 0.00 67 1010.4
20260505235417 0 0.0 0.0 0.00 0.00 0.00 63 1010.7
20260505234916 0 0.0 0.0 0.00 0.00 0.00 63 1010.3
20260505234415 0 0.0 0.0 0.00 0.00 0.00 62 1010.5
20260505233412 0 0.0 0.0 0.00 0.00 0.00 61 1010.5
20260505232911 0 0.0 0.0 0.00 0.00 0.00 61 1010.6
20260505232410 0 0.0 0.0 0.00 0.00 0.00 61 1010.8
20260505231407 0 0.0 0.0 0.00 0.00 0.00 62 1010.9
20260505230405 0 0.0 0.0 0.00 0.00 0.00 63 1011.2
20260505225904 0 0.0 0.0 0.00 0.00 0.00 62 1011.2
20260505225402 0 0.0 0.0 0.00 0.00 0.00 63 1011.2
20260505224901 0 0.0 0.0 0.00 0.00 0.00 62 1011.3
20260505224400 0 0.0 0.0 0.00 0.00 0.00 62 1011.5
20260505223858 0 0.0 0.0 0.00 0.00 0.00 62 1011.6
20260505222355 0 0.0 0.0 0.00 0.00 0.00 63 1011.8
20260505221854 0 0.0 0.0 0.00 0.00 0.00 65 1011.8
20260505221352 0 0.0 0.0 0.00 0.00 0.00 65 1011.8
20260505220350 0 0.0 0.0 0.00 0.00 0.00 62 1011.7
20260505215849 0 0.0 0.0 0.00 0.00 0.00 62 1011.6
20260505215347 0 0.0 0.0 0.00 0.00 0.00 63 1011.6
20260505214846 0 0.0 0.0 0.00 0.00 0.00 63 1011.8
20260505214345 0 0.0 0.0 0.00 0.00 0.00 63 1011.9
20260505213844 0 0.0 0.0 0.00 0.00 0.00 64 1011.8
20260505213343 0 0.0 0.0 0.00 0.00 0.00 64 1011.9
20260505212841 0 0.0 0.0 0.00 0.00 0.00 63 1012.0
20260505212340 0 0.0 0.0 0.00 0.00 0.00 64 1011.9
20260505211839 0 0.0 0.0 0.00 0.00 0.00 64 1011.9
20260505210836 0 0.0 0.0 0.00 0.00 0.00 66 1011.9
20260505205834 0 0.0 0.0 0.00 0.00 0.00 65 1012.0
20260505205333 0 0.0 0.0 0.00 0.00 0.00 64 1012.1
20260505204330 0 0.0 0.0 0.00 0.00 0.00 65 1012.2
20260505203829 0 0.0 0.0 0.00 0.00 0.00 65 1012.3
20260505203328 0 0.0 0.0 0.00 0.00 0.00 65 1012.4
20260505202826 0 0.0 0.0 0.00 0.00 0.00 64 1012.4
20260505202325 0 0.0 0.0 0.00 0.00 0.00 64 1012.3
20260505201824 0 0.0 0.0 0.00 0.00 0.00 64 1012.4
20260505201323 0 0.0 0.0 0.00 0.00 0.00 63 1012.4
20260505200822 0 0.0 0.0 0.00 0.00 0.00 63 1012.4
20260505200320 0 0.0 0.0 0.00 0.00 0.00 63 1012.4
20260505195318 0 0.0 0.0 0.00 0.00 0.00 63 1012.3
20260505194817 0 0.0 0.0 0.00 0.00 0.00 63 1012.2
20260505194315 0 0.0 0.0 0.00 0.00 0.00 63 1012.1
20260505193814 0 0.0 0.0 0.00 0.00 0.00 62 1012.1
20260505193313 0 0.0 0.0 0.00 0.00 0.00 61 1012.1
20260505192812 0 0.0 0.0 0.00 0.00 0.00 60 1012.1
20260505191809 0 0.0 0.0 0.00 0.00 0.00 60 1012.0
20260505191308 0 0.0 0.0 0.00 0.00 0.00 60 1011.9
20260505190807 0 0.0 0.0 0.00 0.00 0.00 60 1011.9
20260505185804 0 0.0 0.0 0.00 0.00 0.00 59 1011.9
20260505185305 0 0.0 0.0 0.00 0.00 0.00 57 1011.8
20260505184802 0 0.0 0.0 0.00 0.00 0.00 57 1011.8
20260505184301 0 0.0 0.0 0.00 0.00 0.00 58 1011.8
20260505183759 0 0.0 0.0 0.00 0.00 0.00 58 1011.9
20260505183258 0 0.0 0.0 0.00 0.00 0.00 58 1011.9
20260505182757 0 0.0 0.0 0.00 0.00 0.00 57 1011.8
20260505182256 0 0.0 0.0 0.00 0.00 0.00 57 1011.8
20260505181253 0 0.0 0.0 0.00 0.00 0.00 58 1011.9
20260505175750 0 0.0 0.0 0.00 0.00 0.00 60 1011.8
20260505175248 0 0.0 0.0 0.00 0.00 0.00 59 1011.7
20260505174747 0 0.0 0.0 0.00 0.00 0.00 58 1011.7
20260505174246 0 0.0 0.0 0.00 0.00 0.00 59 1011.7
20260505173744 0 0.0 0.0 0.00 0.00 0.00 58 1011.8
20260505173243 0 0.0 0.0 0.00 0.00 0.00 58 1011.8
20260505172742 0 0.0 0.0 0.00 0.00 0.00 59 1011.8
20260505172241 0 0.0 0.0 0.00 0.00 0.00 59 1011.7
20260505171239 0 0.0 0.0 0.00 0.00 0.00 53 1011.5
20260505170737 0 0.0 0.0 0.00 0.00 0.00 52 1011.5
20260505170236 0 0.0 0.0 0.00 0.00 0.00 53 1011.5
20260505165735 0 0.0 0.0 0.00 0.00 0.00 52 1011.6
20260505164732 0 0.0 0.0 0.00 0.00 0.00 50 1011.5
20260505163730 0 0.0 0.0 0.00 0.00 0.00 51 1011.6
20260505162727 0 0.0 0.0 0.00 0.00 0.00 53 1011.6
20260505161725 0 0.0 0.0 0.00 0.00 0.00 53 1011.7
20260505161224 0 0.0 0.0 0.00 0.00 0.00 53 1011.7
20260505160722 0 0.0 0.0 0.00 0.00 0.00 55 1011.8
20260505153214 0 0.0 0.0 0.00 0.00 0.00 55 1012.1
20260505152713 0 0.0 0.0 0.00 0.00 0.00 55 1012.0
20260505152211 0 0.0 0.0 0.00 0.00 0.00 55 1012.0
20260505151710 0 0.0 0.0 0.00 0.00 0.00 54 1012.0
20260505151209 0 0.0 0.0 0.00 0.00 0.00 51 1012.0
20260505150708 0 0.0 0.0 0.00 0.00 0.00 55 1012.0
20260505150206 0 0.0 0.0 0.00 0.00 0.00 56 1012.0
20260505140653 0 0.0 0.0 0.00 0.00 0.00 49 1011.9
20260505140152 0 0.0 0.0 0.00 0.00 0.00 49 1011.9
20260505130137 0 0.0 0.0 0.00 0.00 0.00 52 1012.1
20260505124634 0 0.0 0.0 0.00 0.00 0.00 53 1012.0
20260505124132 0 0.0 0.0 0.00 0.00 0.00 54 1012.0
20260505123631 0 0.0 0.0 0.00 0.00 0.00 55 1012.1
20260505123130 0 0.0 0.0 0.00 0.00 0.00 54 1012.1
20260505122629 0 0.0 0.0 0.00 0.00 0.00 55 1012.1
20260505122127 0 0.0 0.0 0.00 0.00 0.00 56 1012.1
20260505121626 0 0.0 0.0 0.00 0.00 0.00 57 1012.1
20260505121125 0 0.0 0.0 0.00 0.00 0.00 57 1012.2
20260505120624 0 0.0 0.0 0.00 0.00 0.00 57 1012.1
20260505120122 0 0.0 0.0 0.00 0.00 0.00 56 1012.0
20260505115621 0 0.0 0.0 0.00 0.00 0.00 55 1012.0
20260505115120 0 0.0 0.0 0.00 0.00 0.00 56 1012.0
20260505113616 0 0.0 0.0 0.00 0.00 0.00 55 1012.0
20260505113115 0 0.0 0.0 0.00 0.00 0.00 56 1012.0
20260505112614 0 0.0 0.0 0.00 0.00 0.00 56 1012.0
20260505112112 0 0.0 0.0 0.00 0.00 0.00 56 1012.0
20260505111611 0 0.0 0.0 0.00 0.00 0.00 55 1012.0
20260505111110 0 0.0 0.0 0.00 0.00 0.00 54 1011.9
20260505110609 0 0.0 0.0 0.00 0.00 0.00 55 1011.8
20260505110107 0 0.0 0.0 0.00 0.00 0.00 55 1011.8
20260505101556 0 0.0 0.0 0.00 0.00 0.00 57 1011.7
20260505101055 0 0.0 0.0 0.00 0.00 0.00 56 1011.6
20260505100554 0 0.0 0.0 0.00 0.00 0.00 57 1011.7
20260505100053 0 0.0 0.0 0.00 0.00 0.00 58 1011.7
20260505095552 0 0.0 0.0 0.00 0.00 0.00 58 1011.7
20260505095051 0 0.0 0.0 0.00 0.00 0.00 59 1011.6
20260505094549 0 0.0 0.0 0.00 0.00 0.00 57 1011.6
20260505094048 0 0.0 0.0 0.00 0.00 0.00 58 1011.6
20260505093547 0 0.0 0.0 0.00 0.00 0.00 59 1011.7
20260505093045 0 0.0 0.0 0.00 0.00 0.00 60 1011.6
20260505092544 0 0.0 0.0 0.00 0.00 0.00 62 1011.7
20260505092043 0 0.0 0.0 0.00 0.00 0.00 62 1011.6
20260505091542 0 0.0 0.0 0.00 0.00 0.00 62 1011.7
20260505091040 0 0.0 0.0 0.00 0.00 0.00 64 1011.7
20260505090540 0 0.0 0.0 0.00 0.00 0.00 65 1011.8
20260505090038 0 0.0 0.0 0.00 0.00 0.00 64 1011.8
20260505085537 0 0.0 0.0 0.00 0.00 0.00 65 1011.8
20260505085036 0 0.0 0.0 0.00 0.00 0.00 66 1011.7
20260505084535 0 0.0 0.0 0.00 0.00 0.00 66 1011.7
20260505084033 0 0.0 0.0 0.00 0.00 0.00 67 1011.7
20260505083532 0 0.0 0.0 0.00 0.00 0.00 68 1011.7
20260505083031 0 0.0 0.0 0.00 0.00 0.00 68 1011.7
20260505082028 0 0.0 0.0 0.00 0.00 0.00 71 1011.6
20260505081527 0 0.0 0.0 0.00 0.00 0.00 71 1011.5
20260505081026 0 0.0 0.0 0.00 0.00 0.00 70 1011.5
20260505080524 0 0.0 0.0 0.00 0.00 0.00 70 1011.6
20260505075522 0 0.0 0.0 0.00 0.00 0.00 71 1011.6
20260505075021 0 0.0 0.0 0.00 0.00 0.00 70 1011.8
20260505074520 0 0.0 0.0 0.00 0.00 0.00 70 1011.8
20260505074018 0 0.0 0.0 0.00 0.00 0.00 70 1011.9
20260505073517 0 0.0 0.0 0.00 0.00 0.00 72 1011.8
20260505073016 0 0.0 0.0 0.00 0.00 0.00 73 1011.9
20260505072515 0 0.0 0.0 0.00 0.00 0.00 74 1012.0
20260505072014 0 0.0 0.0 0.00 0.00 0.00 74 1012.0
20260505071011 0 0.0 0.0 0.00 0.00 0.00 75 1011.8